{"data":{"norad_id":48782,"intl_designator":"2021-045R","name":"ONEWEB-0231","alt_names":[],"object_type":"PAYLOAD","status":"ACTIVE","operator":null,"country":"UK","launch_date":"2021-05-28","launch_site_code":"VOSTO","launch_vehicle":null,"mission":null,"orbit_class":"UNKNOWN","rcs_meters":null,"size_class":null,"mass_kg":null,"dimensions":null,"purposes":["comms"],"wikipedia_slug":null,"has_3d_model":false,"image_url":null,"decayed_at":null,"tle_current":{"epoch":"2026-05-24T18:34:27.914880Z","epoch_age_seconds":101528,"freshness":"FRESH","line1":"1 48782U 21045R   26144.77393420  .00000047  00000+0  91789-4 0  9991","line2":"2 48782  87.8992 263.8614 0001647  97.7627 262.3691 13.15546463241262","mean_motion":13.15546463,"eccentricity":0.0001647,"inclination_deg":87.8992,"raan_deg":263.8614,"arg_perigee_deg":97.7627,"mean_anomaly_deg":262.3691,"bstar":9.1789e-5,"rev_number":24126,"period_min":109.46021600151,"perigee_km":1200.5303719059,"apogee_km":1203.0271961651,"semimajor_km":7579.9157840355,"source":"CELESTRAK","updated_at":"2026-05-25T13:38:22.444584Z"}}}